Location: Unspecified
(38.9820°N, 94.4650°W)
Time: 08:04:36
(UTC-06:00)

Hubble Space Telescope - Visible Passes

Search period start: 21 November 2017 00:00
Search period end: 01 December 2017 00:00
Orbit: 537 x 541 km, 28.5° (Epoch: 20 November)

Date Brightness Start Highest point End Pass type
(mag) Time Alt. Az. Time Alt. Az. Time Alt. Az.
21 Nov 3.3 04:35:52 15° SSE 04:35:52 15° SSE 04:37:24 10° SE visible
21 Nov 3.0 06:12:26 10° SW 06:15:13 18° S 06:18:01 10° SE visible
22 Nov 3.5 04:26:19 13° SE 04:26:19 13° SE 04:27:12 10° SE visible
22 Nov 3.0 06:02:16 10° SW 06:04:54 16° S 06:07:32 10° SSE visible
23 Nov 3.8 04:16:45 11° SE 04:16:45 11° SE 04:16:56 10° SE visible
23 Nov 3.0 05:52:09 10° SW 05:54:34 15° S 05:56:59 10° SSE visible
24 Nov 3.1 05:42:32 11° SW 05:44:14 14° SSW 05:46:18 10° SSE visible
25 Nov 3.1 05:32:57 11° SSW 05:33:53 12° SSW 05:35:25 10° S visible
